Overview Statistics Trail Chart Weather Telemetry Raw packets
 

This is the latest recevied weather packets stored in our database for station/object N8WJW. If no packets are shown the sender has not sent any weather packets the latest 10 day(s).

<< 1 2 3 4 5 >>
Time Temp. Humidity Pressure Rain* Wind** Luminosity Snow
1788568854 21.11° C 99% 1017 hPa 0 mm - 0 W/m² -
1788568530 21.11° C 99% 1016.8 hPa 0 mm - 0 W/m² -
1788568225 21.11° C 99% 1017 hPa 0 mm - 0 W/m² -
1788567920 21.67° C 99% 1017.1 hPa 0 mm - 0 W/m² -
1788567620 21.67° C 99% 1017.1 hPa 0 mm - 0 W/m² -
1788567315 21.67° C 99% 1017.1 hPa 0 mm - 0 W/m² -
1788567009 21.67° C 99% 1017 hPa 0 mm - 0 W/m² -
1788566705 21.67° C 99% 1016.8 hPa 0 mm - 0 W/m² -
1788566400 21.67° C 99% 1017 hPa 0 mm - 1 W/m² -
1788566095 21.67° C 99% 1017.1 hPa 0 mm - 2 W/m² -
1788565790 21.67° C 99% 1016.7 hPa 0 mm - 3 W/m² -
1788565489 22.22° C 99% 1016.7 hPa 0 mm - 5 W/m² -
1788565186 22.22° C 99% 1017.1 hPa 0 mm - 5 W/m² -
1788564881 22.22° C 99% 1017 hPa 0 mm - 7 W/m² -
1788564577 22.22° C 99% 1017 hPa 0 mm - 9 W/m² -
1788564273 22.22° C 99% 1017.2 hPa 0 mm - 12 W/m² -
1788563969 22.22° C 99% 1017.1 hPa 0 mm - 14 W/m² -
1788563664 22.22° C 99% 1017.1 hPa 0 mm - 18 W/m² -
1788563359 22.78° C 99% 1017.2 hPa 0 mm - 21 W/m² -
1788563058 22.78° C 99% 1017 hPa 0 mm - 24 W/m² -
1788562753 22.78° C 99% 1016.8 hPa 0 mm - 30 W/m² -
1788562451 22.78° C 99% 1017 hPa 0 mm - 33 W/m² -
1788562151 22.78° C 99% 1016.8 hPa 0 mm - 35 W/m² -
1788561847 22.78° C 99% 1017.1 hPa 0 mm - 39 W/m² -
1788561541 22.78° C 99% 1016.7 hPa 0 mm - 43 W/m² -

* Rain latest hour (hover to see other rain measurements)
** Current wind speed in m/s (hover to see current wind gust speed)